Location: São Paulo
(23.5507°S, 46.6334°W)
Time: 07:54:35
(UTC-03:00)

Explorer 7 - Pass Details

Date: 19 February 2026
Orbit: 430 x 541 km, 50.2° (Epoch: 11 March)

Event Time Altitude Azimuth Distance (km) Brightness Sun altitude
Rises 01:01:28 0° 318° (NW) 2,694 - -53.7°
Reaches altitude 10° 01:03:41 10° 317° (NW) 1,807 - -53.6°
Maximum altitude 01:07:50 85° 229° (SW) 551 - -53.3°
Drops below altitude 10° 01:11:57 10° 139° (SE) 1,798 - -53.0°
Sets 01:14:10 0° 138° (SE) 2,680 - -52.8°
